This is the latest recevied weather packets stored in our database for station/object AJ5AG. If no packets are shown the sender has not sent any weather packets the latest 10 day(s).
| Time | Temp. | Humidity | Pressure | Rain* | Wind** | Luminosity | Snow |
|---|---|---|---|---|---|---|---|
| 1777938259 | 26.11° C | 62% | 1012.5 hPa | 0 mm | - | 50 W/m² | - |
| 1777937955 | 26.11° C | 61% | 1012.5 hPa | 0 mm | - | 58 W/m² | - |
| 1777937651 | 26.11° C | 61% | 1012.1 hPa | 0 mm | - | 58 W/m² | - |
| 1777937348 | 26.11° C | 60% | 1012.3 hPa | 0 mm | - | 66 W/m² | - |
| 1777937045 | 26.11° C | 60% | 1012.5 hPa | 0 mm | - | 65 W/m² | - |
| 1777936742 | 26.67° C | 59% | 1012.4 hPa | 0 mm | - | 76 W/m² | - |
| 1777936438 | 26.67° C | 58% | 1012.8 hPa | 0 mm | - | 89 W/m² | - |
| 1777936134 | 26.67° C | 58% | 1012.7 hPa | 0 mm | - | 91 W/m² | - |
| 1777935832 | 26.67° C | 57% | 1012.9 hPa | 0 mm | - | 61 W/m² | - |
| 1777935531 | 26.67° C | 58% | 1012.9 hPa | 0 mm | - | 75 W/m² | - |
| 1777935227 | 26.67° C | 58% | 1013 hPa | 0 mm | - | 94 W/m² | - |
| 1777934924 | 26.67° C | 59% | 1013 hPa | 0 mm | - | 91 W/m² | - |
| 1777934621 | 26.67° C | 57% | 1012.8 hPa | 0 mm | - | 76 W/m² | - |
| 1777934318 | 26.67° C | 57% | 1012.8 hPa | 0 mm | - | 93 W/m² | - |
| 1777934013 | 26.67° C | 58% | 1013.3 hPa | 0 mm | - | 109 W/m² | - |
| 1777933710 | 27.22° C | 58% | 1013.1 hPa | 0 mm | - | 114 W/m² | - |
| 1777933407 | 27.22° C | 55% | 1013.3 hPa | 0 mm | - | 101 W/m² | - |
| 1777933106 | 27.22° C | 56% | 1013.1 hPa | 0 mm | - | 79 W/m² | - |
| 1777932802 | 27.22° C | 59% | 1013.3 hPa | 0 mm | - | 87 W/m² | - |
| 1777932499 | 27.22° C | 56% | 1013.2 hPa | 0 mm | - | 70 W/m² | - |
| 1777932195 | 27.22° C | 58% | 1013.3 hPa | 0 mm | - | 83 W/m² | - |
| 1777931893 | 27.22° C | 56% | 1013.3 hPa | 0 mm | - | 126 W/m² | - |
| 1777931589 | 27.22° C | 57% | 1013.5 hPa | 0 mm | - | 144 W/m² | - |
| 1777931285 | 27.22° C | 56% | 1013.4 hPa | 0 mm | - | 107 W/m² | - |
| 1777930982 | 27.78° C | 55% | 1013.7 hPa | 0 mm | - | 110 W/m² | - |
* Rain latest hour (hover to see other rain measurements)
** Current wind speed in m/s (hover to see current wind gust speed)